DW7831 Weather Reports


time (UTC)temp
C
wind
direction
speed
KPH
gust
KPH
rain 1hr
cm
rain 24hr
cm
rain mn
cm
humidity
%
barometer
mb
20260503000034 5 317 0.0 0.0 0.00 0.00 0.03 55 1012.9
20260502234547 5 315 3.2 0.0 0.00 0.00 0.03 53 1012.8
20260502233029 5 269 1.6 0.0 0.00 0.00 0.03 52 1012.7
20260502231526 5 288 4.8 0.0 0.00 0.00 0.03 51 1012.7
20260502230019 6 331 4.8 0.0 0.00 0.00 0.03 51 1012.7
20260502224517 6 286 1.6 0.0 0.00 0.00 0.03 51 1012.6
20260502223013 6 294 3.2 0.0 0.00 0.00 0.03 49 1012.5
20260502221508 6 260 3.2 0.0 0.00 0.00 0.03 48 1012.4
20260502220004 6 292 3.2 0.0 0.00 0.00 0.03 47 1012.3
20260502214502 6 284 3.2 0.0 0.00 0.00 0.03 46 1012.2
20260502213106 7 302 3.2 0.0 0.00 0.00 0.03 46 1012.3
20260502211554 6 277 3.2 0.0 0.00 0.00 0.03 49 1012.2
20260502210048 6 283 4.8 0.0 0.00 0.00 0.03 48 1012.2
20260502203045 7 294 8.0 0.0 0.00 0.00 0.03 48 1012.2
20260502201639 7 254 8.0 0.0 0.00 0.00 0.03 47 1012.3
20260502200034 7 243 11.3 0.0 0.00 0.00 0.03 46 1012.4
20260502193025 7 333 3.2 0.0 0.00 0.00 0.03 47 1012.4
20260502191522 7 301 3.2 0.0 0.00 0.00 0.03 47 1012.6
20260502190016 7 302 4.8 0.0 0.00 0.00 0.03 45 1012.6
20260502183012 7 339 6.4 0.0 0.00 0.00 0.03 45 1012.7
20260502181508 8 339 4.8 0.0 0.00 0.00 0.03 44 1012.6
20260502163038 7 296 6.4 0.0 0.00 0.00 0.03 48 1012.8
20260502161533 7 268 6.4 0.0 0.00 0.00 0.03 49 1013.0
20260502151520 6 307 8.0 0.0 0.00 0.00 0.03 56 1012.9
20260502123043 3 276 4.8 0.0 0.00 0.00 0.03 11 1013.6
20260502121540 2 259 3.2 0.0 0.00 0.00 0.03 1 1013.4
20260502113019 2 273 3.2 0.0 0.00 0.00 0.03 100 1013.0
20260502111514 2 268 1.6 0.0 0.00 0.00 0.03 100 1013.2
20260502110010 2 271 6.4 0.0 0.00 0.00 0.03 100 1013.3
20260502103003 2 281 1.6 0.0 0.00 0.00 0.03 100 1012.7
20260502101611 2 277 3.2 0.0 0.00 0.00 0.03 100 1012.7
20260502071514 5 224 0.0 0.0 0.00 0.00 0.03 100 1011.7
20260502070018 5 224 0.0 0.0 0.00 0.00 0.03 100 1011.9
20260502064605 5 226 0.0 0.0 0.00 0.00 0.03 100 1012.0
20260502063003 5 226 0.0 0.0 0.00 0.00 0.03 100 1011.9
20260502061556 5 226 1.6 0.0 0.00 0.00 0.03 100 1012.1
20260502060054 5 226 1.6 0.0 0.00 0.00 0.03 100 1012.2
20260502054551 5 225 0.0 0.0 0.00 0.00 0.03 100 1012.2
20260502053044 4 225 1.6 0.0 0.00 0.00 0.03 100 1012.1
20260502051541 4 224 0.0 0.0 0.00 0.00 0.03 100 1012.4
20260502050036 4 224 0.0 0.0 0.00 0.00 0.03 100 1012.2
20260502044533 4 224 0.0 0.0 0.00 0.00 0.03 100 1012.4
20260502043031 4 225 0.0 0.0 0.00 0.00 0.00 100 1012.3
20260502041525 4 225 0.0 0.0 0.00 0.00 0.00 100 1012.3
20260502040020 4 225 0.0 0.0 0.00 0.00 0.00 100 1012.4
20260502034516 5 225 1.6 0.0 0.00 0.00 0.30 100 1012.5
20260502033014 5 224 1.6 0.0 0.00 0.00 0.28 100 1012.5
20260502031510 5 224 0.0 0.0 0.00 0.00 0.28 100 1012.4
20260502030006 5 224 1.6 0.0 0.00 0.00 0.28 100 1012.6
20260502024501 5 225 1.6 0.0 0.00 0.00 0.28 100 1012.9
20260502023102 5 231 0.0 0.0 0.00 0.00 0.23 4 1012.8
20260502023001 5 231 0.0 0.0 0.00 0.00 0.23 4 1012.8
20260502021556 6 231 0.0 0.0 0.00 0.00 0.18 11 1012.6
20260502020052 6 231 0.0 0.0 0.00 0.00 0.18 18 1012.6
20260502014549 6 231 0.0 0.0 0.00 0.00 0.13 27 1012.9
20260502013047 6 231 0.0 0.0 0.00 0.00 0.10 35 1012.7
20260502011539 6 231 0.0 0.0 0.00 0.00 0.05 44 1012.7
20260502010036 6 231 0.0 0.0 0.00 0.00 0.00 50 1012.7
20260502004547 7 231 0.0 0.0 0.00 0.00 0.00 53 1012.5
20260502003026 7 231 0.0 0.0 0.00 0.00 0.00 56 1012.4
20260502001526 7 231 0.0 0.0 0.00 0.00 0.00 59 1012.3